| time (UTC) | temp F | wind direction | speed MPH | gust MPH | rain 1hr in | rain 24hr in | rain mn in | humidity % | barometer mb |
| 20260510234433 | 43 | 91 | 4.0 | 10.0 | 0.00 | 0.00 | 0.00 | 44 | 1023.6 |
| 20260510234144 | 42 | 103 | 4.0 | 10.0 | 0.00 | 0.00 | 0.00 | 44 | 1023.6 |
| 20260510233637 | 42 | 80 | 4.0 | 10.0 | 0.00 | 0.00 | 0.00 | 46 | 1023.6 |
| 20260510233145 | 43 | 61 | 5.0 | 11.0 | 0.00 | 0.00 | 0.00 | 46 | 1023.6 |
| 20260510232403 | 43 | 72 | 5.0 | 11.0 | 0.00 | 0.00 | 0.00 | 45 | 1023.5 |
| 20260510231905 | 44 | 102 | 5.0 | 10.0 | 0.00 | 0.00 | 0.00 | 43 | 1023.4 |
| 20260510231338 | 45 | 61 | 5.0 | 14.0 | 0.00 | 0.00 | 0.00 | 39 | 1023.4 |
| 20260510230814 | 47 | 82 | 4.0 | 14.0 | 0.00 | 0.00 | 0.00 | 36 | 1023.4 |
| 20260510230313 | 50 | 134 | 4.0 | 11.0 | 0.00 | 0.00 | 0.00 | 27 | 1023.0 |
| 20260510225803 | 50 | 101 | 6.0 | 13.0 | 0.00 | 0.00 | 0.00 | 26 | 1023.1 |
| 20260510225306 | 50 | 254 | 5.0 | 13.0 | 0.00 | 0.00 | 0.00 | 26 | 1023.0 |
| 20260510224737 | 50 | 117 | 2.0 | 9.0 | 0.00 | 0.00 | 0.00 | 27 | 1022.9 |
| 20260510224211 | 50 | 237 | 4.0 | 11.0 | 0.00 | 0.00 | 0.00 | 27 | 1023.0 |
| 20260510223644 | 49 | 349 | 7.0 | 12.0 | 0.00 | 0.00 | 0.00 | 27 | 1023.0 |
| 20260510223350 | 49 | 14 | 6.0 | 12.0 | 0.00 | 0.00 | 0.00 | 27 | 1022.9 |
| 20260510222611 | 49 | 33 | 5.0 | 12.0 | 0.00 | 0.00 | 0.00 | 27 | 1023.0 |
| 20260510222108 | 49 | 53 | 5.0 | 12.0 | 0.00 | 0.00 | 0.00 | 27 | 1023.0 |
| 20260510221816 | 50 | 289 | 5.0 | 13.0 | 0.00 | 0.00 | 0.00 | 26 | 1023.0 |
| 20260510221020 | 50 | 157 | 7.0 | 13.0 | 0.00 | 0.00 | 0.00 | 27 | 1022.9 |
| 20260510215919 | 50 | 273 | 5.0 | 15.0 | 0.00 | 0.00 | 0.00 | 27 | 1022.9 |
| 20260510215355 | 49 | 331 | 5.0 | 15.0 | 0.00 | 0.00 | 0.00 | 27 | 1023.0 |
| 20260510215059 | 50 | 216 | 5.0 | 11.0 | 0.00 | 0.00 | 0.00 | 28 | 1022.7 |
| 20260510214302 | 50 | 288 | 5.0 | 19.0 | 0.00 | 0.00 | 0.00 | 28 | 1023.0 |
| 20260510213737 | 49 | 0 | 6.0 | 14.0 | 0.00 | 0.00 | 0.00 | 29 | 1022.7 |
| 20260510213209 | 49 | 316 | 7.0 | 16.0 | 0.00 | 0.00 | 0.00 | 28 | 1022.8 |
| 20260510212708 | 49 | 19 | 7.0 | 16.0 | 0.00 | 0.00 | 0.00 | 28 | 1022.7 |
| 20260510212205 | 49 | 121 | 8.0 | 14.0 | 0.00 | 0.00 | 0.00 | 29 | 1022.5 |
| 20260510211638 | 49 | 23 | 7.0 | 14.0 | 0.00 | 0.00 | 0.00 | 28 | 1022.5 |
| 20260510211135 | 49 | 350 | 6.0 | 13.0 | 0.00 | 0.00 | 0.00 | 28 | 1022.6 |
| 20260510210611 | 49 | 250 | 5.0 | 11.0 | 0.00 | 0.00 | 0.00 | 28 | 1022.5 |
| 20260510210037 | 49 | 29 | 6.0 | 18.0 | 0.00 | 0.00 | 0.00 | 28 | 1022.5 |
| 20260510205536 | 49 | 0 | 7.0 | 18.0 | 0.00 | 0.00 | 0.00 | 29 | 1022.5 |
| 20260510205009 | 49 | 126 | 7.0 | 19.0 | 0.00 | 0.00 | 0.00 | 29 | 1022.4 |
| 20260510204443 | 49 | 312 | 5.0 | 19.0 | 0.00 | 0.00 | 0.00 | 29 | 1022.5 |
| 20260510204148 | 49 | 71 | 5.0 | 15.0 | 0.00 | 0.00 | 0.00 | 29 | 1022.3 |
| 20260510203414 | 48 | 264 | 7.0 | 15.0 | 0.00 | 0.00 | 0.00 | 28 | 1022.5 |
| 20260510202911 | 49 | 32 | 7.0 | 17.0 | 0.00 | 0.00 | 0.00 | 28 | 1022.5 |
| 20260510202345 | 48 | 348 | 7.0 | 15.0 | 0.00 | 0.00 | 0.00 | 28 | 1022.5 |
| 20260510201839 | 49 | 327 | 7.0 | 17.0 | 0.00 | 0.00 | 0.00 | 29 | 1022.4 |
| 20260510201609 | 49 | 17 | 5.0 | 17.0 | 0.00 | 0.00 | 0.00 | 28 | 1022.4 |
| 20260510200811 | 49 | 42 | 5.0 | 15.0 | 0.00 | 0.00 | 0.00 | 29 | 1022.5 |
| 20260510200309 | 48 | 341 | 8.0 | 18.0 | 0.00 | 0.00 | 0.00 | 30 | 1022.4 |
| 20260510195751 | 48 | 34 | 8.0 | 19.0 | 0.00 | 0.00 | 0.00 | 29 | 1022.4 |
| 20260510195520 | 49 | 305 | 6.0 | 19.0 | 0.00 | 0.00 | 0.00 | 29 | 1022.3 |
| 20260510194750 | 48 | 311 | 5.0 | 15.0 | 0.00 | 0.00 | 0.00 | 30 | 1022.4 |
| 20260510194521 | 47 | 259 | 6.0 | 16.0 | 0.00 | 0.00 | 0.00 | 31 | 1022.4 |
| 20260510193740 | 48 | 24 | 6.0 | 16.0 | 0.00 | 0.00 | 0.00 | 30 | 1022.3 |
| 20260510193237 | 48 | 18 | 8.0 | 19.0 | 0.00 | 0.00 | 0.00 | 31 | 1022.3 |
| 20260510192733 | 48 | 77 | 7.0 | 19.0 | 0.00 | 0.00 | 0.00 | 30 | 1022.3 |
| 20260510192230 | 49 | 339 | 5.0 | 15.0 | 0.00 | 0.00 | 0.00 | 29 | 1022.4 |
| 20260510191705 | 49 | 15 | 5.0 | 15.0 | 0.00 | 0.00 | 0.00 | 30 | 1022.3 |
| 20260510191203 | 48 | 247 | 6.0 | 16.0 | 0.00 | 0.00 | 0.00 | 31 | 1022.3 |
| 20260510190706 | 48 | 286 | 7.0 | 16.0 | 0.00 | 0.00 | 0.00 | 30 | 1022.2 |
| 20260510190643 | 48 | 304 | 7.0 | 17.0 | 0.00 | 0.00 | 0.00 | 33 | 1022.3 |
| 20260510190130 | 47 | 27 | 7.0 | 17.0 | 0.00 | 0.00 | 0.00 | 31 | 1022.3 |
| 20260510185130 | 47 | 17 | 5.0 | 14.0 | 0.00 | 0.00 | 0.00 | 31 | 1022.4 |
| 20260510184629 | 48 | 315 | 4.0 | 14.0 | 0.00 | 0.00 | 0.00 | 31 | 1022.2 |
| 20260510184126 | 48 | 63 | 7.0 | 15.0 | 0.00 | 0.00 | 0.00 | 31 | 1022.2 |
| 20260510183621 | 47 | 194 | 9.0 | 20.0 | 0.00 | 0.00 | 0.00 | 31 | 1022.1 |
| 20260510183117 | 47 | 271 | 8.0 | 20.0 | 0.00 | 0.00 | 0.00 | 30 | 1022.2 |
| 20260510182551 | 47 | 309 | 6.0 | 16.0 | 0.00 | 0.00 | 0.00 | 29 | 1022.2 |
| 20260510182046 | 47 | 291 | 6.0 | 16.0 | 0.00 | 0.00 | 0.00 | 31 | 1022.1 |
| 20260510181546 | 47 | 346 | 8.0 | 14.0 | 0.00 | 0.00 | 0.00 | 31 | 1022.2 |
| 20260510181524 | 46 | 343 | 7.0 | 15.0 | 0.00 | 0.00 | 0.00 | 33 | 1022.2 |
| 20260510181017 | 46 | 289 | 9.0 | 17.0 | 0.00 | 0.00 | 0.00 | 32 | 1022.2 |
| 20260510175950 | 46 | 39 | 8.0 | 21.0 | 0.00 | 0.00 | 0.00 | 32 | 1022.1 |
| 20260510175421 | 47 | 286 | 8.0 | 21.0 | 0.00 | 0.00 | 0.00 | 33 | 1022.1 |
| 20260510174855 | 46 | 293 | 7.0 | 16.0 | 0.00 | 0.00 | 0.00 | 33 | 1022.0 |
| 20260510174335 | 46 | 11 | 6.0 | 11.0 | 0.00 | 0.00 | 0.00 | 33 | 1021.8 |
| 20260510174329 | 46 | 334 | 7.0 | 16.0 | 0.00 | 0.00 | 0.00 | 33 | 1022.0 |
| 20260510173256 | 46 | 146 | 7.0 | 19.0 | 0.00 | 0.00 | 0.00 | 35 | 1021.9 |
| 20260510172730 | 45 | 286 | 6.0 | 18.0 | 0.00 | 0.00 | 0.00 | 34 | 1021.9 |
| 20260510172228 | 45 | 25 | 5.0 | 17.0 | 0.00 | 0.00 | 0.00 | 36 | 1021.9 |
| 20260510171725 | 44 | 217 | 8.0 | 17.0 | 0.00 | 0.00 | 0.00 | 35 | 1021.9 |
| 20260510171202 | 44 | 348 | 9.0 | 22.0 | 0.00 | 0.00 | 0.00 | 37 | 1022.1 |
| 20260510170931 | 45 | 275 | 8.0 | 22.0 | 0.00 | 0.00 | 0.00 | 36 | 1022.0 |
| 20260510170133 | 45 | 238 | 6.0 | 16.0 | 0.00 | 0.00 | 0.00 | 36 | 1022.0 |
| 20260510165632 | 45 | 236 | 4.0 | 12.0 | 0.00 | 0.00 | 0.00 | 37 | 1022.0 |
| 20260510165116 | 45 | 90 | 4.0 | 14.0 | 0.00 | 0.00 | 0.00 | 39 | 1022.0 |
| 20260510164547 | 45 | 173 | 5.0 | 17.0 | 0.00 | 0.00 | 0.00 | 38 | 1022.0 |
| 20260510164317 | 45 | 38 | 6.0 | 21.0 | 0.00 | 0.00 | 0.00 | 36 | 1021.9 |
| 20260510163530 | 45 | 355 | 5.0 | 21.0 | 0.00 | 0.00 | 0.00 | 35 | 1021.8 |
| 20260510163032 | 45 | 355 | 4.0 | 12.0 | 0.00 | 0.00 | 0.00 | 38 | 1021.9 |
| 20260510162508 | 45 | 319 | 5.0 | 19.0 | 0.00 | 0.00 | 0.00 | 36 | 1021.8 |
| 20260510161952 | 45 | 78 | 5.0 | 19.0 | 0.00 | 0.00 | 0.00 | 39 | 1021.9 |
| 20260510161453 | 45 | 300 | 6.0 | 17.0 | 0.00 | 0.00 | 0.00 | 40 | 1021.6 |
| 20260510160950 | 44 | 324 | 7.0 | 17.0 | 0.00 | 0.00 | 0.00 | 39 | 1021.6 |
| 20260510160448 | 44 | 246 | 6.0 | 17.0 | 0.00 | 0.00 | 0.00 | 37 | 1021.4 |
| 20260510155948 | 45 | 5 | 5.0 | 17.0 | 0.00 | 0.00 | 0.00 | 34 | 1021.4 |
| 20260510155448 | 45 | 280 | 6.0 | 17.0 | 0.00 | 0.00 | 0.00 | 34 | 1021.3 |
| 20260510154937 | 44 | 306 | 6.0 | 17.0 | 0.00 | 0.00 | 0.00 | 41 | 1021.2 |
| 20260510154438 | 44 | 285 | 6.0 | 17.0 | 0.00 | 0.00 | 0.00 | 40 | 1021.1 |
| 20260510153937 | 44 | 308 | 6.0 | 14.0 | 0.00 | 0.00 | 0.00 | 40 | 1021.2 |
| 20260510153436 | 44 | 355 | 5.0 | 14.0 | 0.00 | 0.00 | 0.00 | 40 | 1021.2 |
| 20260510152937 | 44 | 344 | 7.0 | 14.0 | 0.00 | 0.00 | 0.00 | 41 | 1021.0 |
| 20260510152423 | 43 | 271 | 8.0 | 21.0 | 0.00 | 0.00 | 0.00 | 40 | 1021.1 |
| 20260510151925 | 45 | 282 | 5.0 | 21.0 | 0.00 | 0.00 | 0.00 | 38 | 1021.0 |
| 20260510151654 | 46 | 292 | 3.0 | 12.0 | 0.00 | 0.00 | 0.00 | 40 | 1020.9 |
| 20260510150922 | 45 | 269 | 4.0 | 12.0 | 0.00 | 0.00 | 0.00 | 40 | 1020.9 |
| 20260510150358 | 44 | 275 | 6.0 | 15.0 | 0.00 | 0.00 | 0.00 | 42 | 1020.8 |
| 20260510145840 | 45 | 265 | 5.0 | 15.0 | 0.00 | 0.00 | 0.00 | 41 | 1020.8 |
| 20260510145319 | 45 | 73 | 4.0 | 13.0 | 0.00 | 0.00 | 0.00 | 41 | 1020.8 |
| 20260510144815 | 44 | 39 | 6.0 | 13.0 | 0.00 | 0.00 | 0.00 | 43 | 1020.7 |
| 20260510144318 | 44 | 288 | 6.0 | 16.0 | 0.00 | 0.00 | 0.00 | 43 | 1020.5 |
| 20260510144048 | 44 | 41 | 5.0 | 16.0 | 0.00 | 0.00 | 0.00 | 45 | 1020.4 |
| 20260510143546 | 43 | 45 | 5.0 | 13.0 | 0.00 | 0.00 | 0.00 | 46 | 1020.5 |
| 20260510142751 | 43 | 294 | 5.0 | 11.0 | 0.00 | 0.00 | 0.00 | 47 | 1020.5 |
| 20260510142226 | 42 | 338 | 5.0 | 14.0 | 0.00 | 0.00 | 0.00 | 47 | 1020.5 |
| 20260510141930 | 42 | 24 | 5.0 | 14.0 | 0.00 | 0.00 | 0.00 | 48 | 1020.5 |
| 20260510141135 | 42 | 306 | 7.0 | 15.0 | 0.00 | 0.00 | 0.00 | 48 | 1020.4 |
| 20260510140608 | 42 | 339 | 6.0 | 15.0 | 0.00 | 0.00 | 0.00 | 48 | 1020.4 |
| 20260510135600 | 42 | 15 | 5.0 | 15.0 | 0.00 | 0.00 | 0.00 | 47 | 1020.4 |
| 20260510135033 | 42 | 146 | 5.0 | 15.0 | 0.00 | 0.00 | 0.00 | 49 | 1020.3 |
| 20260510134530 | 42 | 336 | 6.0 | 16.0 | 0.00 | 0.00 | 0.00 | 49 | 1020.3 |
| 20260510134026 | 42 | 333 | 6.0 | 16.0 | 0.00 | 0.00 | 0.00 | 48 | 1020.2 |
| 20260510133523 | 42 | 0 | 5.0 | 13.0 | 0.00 | 0.00 | 0.00 | 49 | 1020.2 |
| 20260510133253 | 42 | 248 | 5.0 | 13.0 | 0.00 | 0.00 | 0.00 | 49 | 1020.1 |
| 20260510132517 | 41 | 355 | 5.0 | 13.0 | 0.00 | 0.00 | 0.00 | 50 | 1020.1 |
| 20260510131950 | 41 | 11 | 5.0 | 15.0 | 0.00 | 0.00 | 0.00 | 51 | 1020.0 |
| 20260510131448 | 40 | 64 | 7.0 | 15.0 | 0.00 | 0.00 | 0.00 | 51 | 1020.0 |
| 20260510130921 | 40 | 347 | 6.0 | 17.0 | 0.00 | 0.00 | 0.00 | 51 | 1020.1 |
| 20260510130418 | 40 | 338 | 6.0 | 16.0 | 0.00 | 0.00 | 0.00 | 52 | 1020.0 |
| 20260510125856 | 40 | 196 | 5.0 | 17.0 | 0.00 | 0.00 | 0.00 | 51 | 1019.7 |
| 20260510125851 | 40 | 288 | 5.0 | 16.0 | 0.00 | 0.00 | 0.00 | 51 | 1019.9 |
| 20260510124818 | 40 | 150 | 6.0 | 17.0 | 0.00 | 0.00 | 0.00 | 52 | 1019.6 |
| 20260510124322 | 40 | 320 | 5.0 | 13.0 | 0.00 | 0.00 | 0.00 | 52 | 1019.5 |
| 20260510124317 | 40 | 335 | 4.0 | 14.0 | 0.00 | 0.00 | 0.00 | 52 | 1019.5 |
| 20260510123248 | 39 | 30 | 6.0 | 18.0 | 0.00 | 0.00 | 0.00 | 52 | 1019.4 |
| 20260510122720 | 39 | 309 | 6.0 | 19.0 | 0.00 | 0.00 | 0.00 | 52 | 1019.4 |
| 20260510122219 | 39 | 344 | 5.0 | 19.0 | 0.00 | 0.00 | 0.00 | 53 | 1019.3 |
| 20260510121704 | 40 | 221 | 4.0 | 15.0 | 0.00 | 0.00 | 0.00 | 53 | 1019.1 |
| 20260510121203 | 39 | 327 | 6.0 | 15.0 | 0.00 | 0.00 | 0.00 | 53 | 1019.0 |
| 20260510120634 | 39 | 311 | 6.0 | 15.0 | 0.00 | 0.00 | 0.00 | 53 | 1018.9 |
| 20260510120133 | 39 | 247 | 5.0 | 15.0 | 0.00 | 0.00 | 0.00 | 53 | 1019.0 |
| 20260510115628 | 39 | 332 | 4.0 | 11.0 | 0.00 | 0.00 | 0.00 | 53 | 1018.9 |
| 20260510115128 | 39 | 248 | 4.0 | 14.0 | 0.00 | 0.00 | 0.00 | 53 | 1018.7 |
| 20260510114623 | 39 | 278 | 4.0 | 14.0 | 0.00 | 0.00 | 0.00 | 53 | 1018.7 |
| 20260510114058 | 39 | 326 | 4.0 | 17.0 | 0.00 | 0.00 | 0.00 | 53 | 1018.6 |
| 20260510113530 | 39 | 159 | 5.0 | 17.0 | 0.00 | 0.00 | 0.00 | 54 | 1018.4 |
| 20260510113238 | 39 | 323 | 4.0 | 12.0 | 0.00 | 0.00 | 0.00 | 54 | 1018.5 |
| 20260510112720 | 39 | 315 | 3.0 | 12.0 | 0.00 | 0.00 | 0.00 | 54 | 1018.4 |
| 20260510111951 | 39 | 259 | 4.0 | 14.0 | 0.00 | 0.00 | 0.00 | 54 | 1018.2 |
| 20260510111424 | 39 | 288 | 4.0 | 14.0 | 0.00 | 0.00 | 0.00 | 54 | 1018.2 |
| 20260510110920 | 39 | 242 | 5.0 | 12.0 | 0.00 | 0.00 | 0.00 | 54 | 1018.0 |
| 20260510110354 | 39 | 0 | 5.0 | 12.0 | 0.00 | 0.00 | 0.00 | 54 | 1018.0 |
| 20260510105852 | 39 | 302 | 4.0 | 12.0 | 0.00 | 0.00 | 0.00 | 54 | 1017.9 |
| 20260510105348 | 39 | 333 | 3.0 | 8.0 | 0.00 | 0.00 | 0.00 | 54 | 1017.8 |
| 20260510104846 | 39 | 279 | 2.0 | 8.0 | 0.00 | 0.00 | 0.00 | 55 | 1017.8 |
| 20260510104344 | 39 | 321 | 2.0 | 6.0 | 0.00 | 0.00 | 0.00 | 55 | 1017.7 |
| 20260510103818 | 39 | 302 | 2.0 | 10.0 | 0.00 | 0.00 | 0.00 | 54 | 1017.6 |
| 20260510103250 | 39 | 315 | 2.0 | 7.0 | 0.00 | 0.00 | 0.00 | 55 | 1017.5 |
| 20260510102748 | 40 | 226 | 3.0 | 11.0 | 0.00 | 0.00 | 0.00 | 54 | 1017.4 |
| 20260510102222 | 40 | 254 | 3.0 | 11.0 | 0.00 | 0.00 | 0.00 | 54 | 1017.4 |
| 20260510101719 | 40 | 5 | 3.0 | 9.0 | 0.00 | 0.00 | 0.00 | 54 | 1017.4 |
| 20260510101217 | 40 | 300 | 3.0 | 8.0 | 0.00 | 0.00 | 0.00 | 54 | 1017.3 |
| 20260510100713 | 40 | 5 | 3.0 | 8.0 | 0.00 | 0.00 | 0.00 | 54 | 1017.2 |
| 20260510100210 | 40 | 317 | 2.0 | 8.0 | 0.00 | 0.00 | 0.00 | 54 | 1017.2 |
| 20260510095643 | 40 | 259 | 2.0 | 7.0 | 0.00 | 0.00 | 0.00 | 53 | 1017.2 |
| 20260510095117 | 40 | 225 | 1.0 | 6.0 | 0.00 | 0.00 | 0.00 | 52 | 1017.0 |
| 20260510094553 | 40 | 257 | 1.0 | 6.0 | 0.00 | 0.00 | 0.00 | 52 | 1017.0 |
| 20260510094258 | 41 | 253 | 3.0 | 7.0 | 0.00 | 0.00 | 0.00 | 52 | 1016.9 |
| 20260510093458 | 41 | 227 | 3.0 | 8.0 | 0.00 | 0.00 | 0.00 | 52 | 1016.8 |
| 20260510092958 | 41 | 275 | 3.0 | 9.0 | 0.00 | 0.00 | 0.00 | 52 | 1016.7 |
| 20260510092443 | 41 | 266 | 3.0 | 9.0 | 0.00 | 0.00 | 0.00 | 51 | 1016.4 |
| 20260510092219 | 41 | 261 | 3.0 | 9.0 | 0.00 | 0.00 | 0.00 | 51 | 1016.5 |
| 20260510091703 | 41 | 288 | 4.0 | 9.0 | 0.00 | 0.00 | 0.00 | 51 | 1016.3 |
| 20260510091546 | 41 | 279 | 3.0 | 9.0 | 0.00 | 0.00 | 0.00 | 51 | 1016.5 |
| 20260510090409 | 41 | 262 | 2.0 | 9.0 | 0.00 | 0.00 | 0.00 | 51 | 1016.4 |
| 20260510090133 | 40 | 240 | 1.0 | 9.0 | 0.00 | 0.00 | 0.00 | 51 | 1016.2 |
| 20260510085358 | 40 | 276 | 1.0 | 4.0 | 0.00 | 0.00 | 0.00 | 51 | 1016.2 |
| 20260510084856 | 40 | 323 | 1.0 | 3.0 | 0.00 | 0.00 | 0.00 | 51 | 1016.1 |
| 20260510084330 | 40 | 323 | 0.0 | 3.0 | 0.00 | 0.00 | 0.00 | 51 | 1016.1 |
| 20260510083806 | 41 | 230 | 0.0 | 0.0 | 0.00 | 0.00 | 0.00 | 49 | 1016.1 |
| 20260510083242 | 41 | 230 | 0.0 | 3.0 | 0.00 | 0.00 | 0.00 | 49 | 1016.1 |
| 20260510082743 | 42 | 230 | 1.0 | 3.0 | 0.00 | 0.00 | 0.00 | 49 | 1016.0 |
| 20260510082220 | 42 | 270 | 0.0 | 2.0 | 0.00 | 0.00 | 0.00 | 48 | 1015.9 |
| 20260510081719 | 42 | 270 | 0.0 | 2.0 | 0.00 | 0.00 | 0.00 | 48 | 1015.9 |
| 20260510081218 | 42 | 276 | 1.0 | 6.0 | 0.00 | 0.00 | 0.00 | 47 | 1015.8 |
| 20260510080717 | 42 | 275 | 2.0 | 6.0 | 0.00 | 0.00 | 0.00 | 47 | 1015.6 |
| 20260510080445 | 43 | 285 | 2.0 | 8.0 | 0.00 | 0.00 | 0.00 | 47 | 1015.8 |
| 20260510075710 | 43 | 294 | 2.0 | 9.0 | 0.00 | 0.00 | 0.00 | 47 | 1015.6 |
| 20260510075212 | 43 | 271 | 3.0 | 9.0 | 0.00 | 0.00 | 0.00 | 47 | 1015.6 |
| 20260510074648 | 43 | 217 | 4.0 | 9.0 | 0.00 | 0.00 | 0.00 | 46 | 1015.5 |
| 20260510074145 | 43 | 272 | 3.0 | 9.0 | 0.00 | 0.00 | 0.00 | 46 | 1015.4 |
| 20260510073624 | 43 | 241 | 2.0 | 8.0 | 0.00 | 0.00 | 0.00 | 45 | 1015.4 |
| 20260510073117 | 43 | 240 | 2.0 | 5.0 | 0.00 | 0.00 | 0.00 | 45 | 1015.4 |
| 20260510072555 | 43 | 281 | 2.0 | 6.0 | 0.00 | 0.00 | 0.00 | 45 | 1015.4 |
| 20260510072055 | 44 | 303 | 3.0 | 8.0 | 0.00 | 0.00 | 0.00 | 44 | 1015.4 |
| 20260510071557 | 44 | 293 | 3.0 | 8.0 | 0.00 | 0.00 | 0.00 | 44 | 1015.4 |
| 20260510071035 | 44 | 304 | 3.0 | 8.0 | 0.00 | 0.00 | 0.00 | 44 | 1015.4 |
| 20260510070536 | 43 | 259 | 2.0 | 5.0 | 0.00 | 0.00 | 0.00 | 43 | 1015.3 |
| 20260510070008 | 43 | 296 | 2.0 | 6.0 | 0.00 | 0.00 | 0.00 | 42 | 1015.3 |
| 20260510065506 | 44 | 241 | 1.0 | 6.0 | 0.00 | 0.00 | 0.00 | 42 | 1015.3 |
| 20260510065004 | 44 | 220 | 2.0 | 7.0 | 0.00 | 0.00 | 0.00 | 41 | 1015.3 |
| 20260510064946 | 44 | 328 | 2.0 | 7.0 | 0.00 | 0.00 | 0.00 | 41 | 1015.2 |
| 20260510064215 | 44 | 252 | 2.0 | 6.0 | 0.00 | 0.00 | 0.00 | 40 | 1015.2 |
| 20260510063713 | 44 | 207 | 2.0 | 4.0 | 0.00 | 0.00 | 0.00 | 40 | 1015.2 |
| 20260510062936 | 44 | 217 | 1.0 | 3.0 | 0.00 | 0.00 | 0.00 | 41 | 1015.3 |
| 20260510062436 | 44 | 234 | 1.0 | 3.0 | 0.00 | 0.00 | 0.00 | 41 | 1015.2 |
| 20260510061918 | 44 | 246 | 0.0 | 3.0 | 0.00 | 0.00 | 0.00 | 41 | 1015.3 |
| 20260510061401 | 44 | 246 | 0.0 | 2.0 | 0.00 | 0.00 | 0.00 | 41 | 1015.2 |
| 20260510061131 | 44 | 243 | 0.0 | 2.0 | 0.00 | 0.00 | 0.00 | 40 | 1015.2 |
| 20260510060401 | 44 | 243 | 0.0 | 3.0 | 0.00 | 0.00 | 0.00 | 40 | 1015.2 |
| 20260510060130 | 44 | 243 | 1.0 | 3.0 | 0.00 | 0.00 | 0.00 | 39 | 1015.1 |
| 20260510055630 | 44 | 244 | 1.0 | 4.0 | 0.00 | 0.00 | 0.00 | 39 | 1015.2 |
| 20260510054858 | 44 | 165 | 1.0 | 6.0 | 0.00 | 0.00 | 0.00 | 39 | 1015.1 |
| 20260510054357 | 44 | 259 | 1.0 | 6.0 | 0.00 | 0.00 | 0.00 | 38 | 1015.1 |
| 20260510053833 | 44 | 109 | 1.0 | 3.0 | 0.00 | 0.00 | 0.00 | 38 | 1015.0 |
| 20260510053331 | 44 | 221 | 1.0 | 3.0 | 0.00 | 0.00 | 0.00 | 38 | 1015.0 |
| 20260510053102 | 44 | 219 | 1.0 | 6.0 | 0.00 | 0.00 | 0.00 | 37 | 1014.9 |
| 20260510052328 | 44 | 220 | 2.0 | 6.0 | 0.00 | 0.00 | 0.00 | 37 | 1014.8 |
| 20260510051804 | 44 | 237 | 1.0 | 4.0 | 0.00 | 0.00 | 0.00 | 37 | 1015.0 |
| 20260510051239 | 44 | 242 | 1.0 | 4.0 | 0.00 | 0.00 | 0.00 | 37 | 1014.9 |
| 20260510050715 | 43 | 230 | 1.0 | 4.0 | 0.00 | 0.00 | 0.00 | 37 | 1015.0 |
| 20260510050215 | 43 | 252 | 1.0 | 3.0 | 0.00 | 0.00 | 0.00 | 37 | 1014.9 |
| 20260510045715 | 43 | 297 | 0.0 | 3.0 | 0.00 | 0.00 | 0.00 | 37 | 1014.8 |
| 20260510045149 | 43 | 219 | 1.0 | 4.0 | 0.00 | 0.00 | 0.00 | 37 | 1014.8 |
| 20260510044859 | 43 | 218 | 1.0 | 4.0 | 0.00 | 0.00 | 0.00 | 37 | 1014.7 |
| 20260510044126 | 43 | 238 | 1.0 | 3.0 | 0.00 | 0.00 | 0.00 | 37 | 1014.7 |
| 20260510043624 | 43 | 238 | 1.0 | 3.0 | 0.00 | 0.00 | 0.00 | 39 | 1014.7 |
| 20260510043122 | 42 | 254 | 1.0 | 3.0 | 0.00 | 0.00 | 0.00 | 38 | 1014.7 |
| 20260510042624 | 42 | 254 | 1.0 | 2.0 | 0.00 | 0.00 | 0.00 | 39 | 1014.7 |
| 20260510042120 | 42 | 254 | 0.0 | 2.0 | 0.00 | 0.00 | 0.00 | 40 | 1014.6 |
| 20260510041852 | 42 | 254 | 0.0 | 0.0 | 0.00 | 0.00 | 0.00 | 40 | 1014.6 |
| 20260510041117 | 41 | 254 | 0.0 | 0.0 | 0.00 | 0.00 | 0.00 | 41 | 1014.6 |
| 20260510040616 | 42 | 254 | 0.0 | 0.0 | 0.00 | 0.00 | 0.00 | 41 | 1014.6 |
| 20260510040122 | 42 | 254 | 0.0 | 0.0 | 0.00 | 0.00 | 0.00 | 39 | 1014.6 |
| 20260510040116 | 42 | 254 | 0.0 | 0.0 | 0.00 | 0.00 | 0.00 | 40 | 1014.6 |
| 20260510035114 | 42 | 254 | 0.0 | 0.0 | 0.00 | 0.00 | 0.00 | 39 | 1014.7 |
| 20260510034549 | 42 | 254 | 0.0 | 0.0 | 0.00 | 0.00 | 0.00 | 39 | 1014.6 |
| 20260510034038 | 43 | 254 | 0.0 | 0.0 | 0.00 | 0.00 | 0.00 | 38 | 1014.6 |
| 20260510033753 | 43 | 254 | 0.0 | 1.0 | 0.00 | 0.00 | 0.00 | 38 | 1014.6 |
| 20260510033255 | 43 | 254 | 0.0 | 1.0 | 0.00 | 0.00 | 0.00 | 37 | 1014.5 |
| 20260510032458 | 43 | 254 | 0.0 | 2.0 | 0.00 | 0.00 | 0.00 | 38 | 1014.5 |
| 20260510031955 | 43 | 254 | 0.0 | 3.0 | 0.00 | 0.00 | 0.00 | 37 | 1014.5 |
| 20260510031454 | 43 | 271 | 0.0 | 3.0 | 0.00 | 0.00 | 0.00 | 37 | 1014.5 |
| 20260510030953 | 43 | 271 | 1.0 | 3.0 | 0.00 | 0.00 | 0.00 | 37 | 1014.4 |
| 20260510030427 | 44 | 271 | 1.0 | 3.0 | 0.00 | 0.00 | 0.00 | 37 | 1014.5 |
| 20260510025900 | 44 | 271 | 1.0 | 2.0 | 0.00 | 0.00 | 0.00 | 35 | 1014.4 |
| 20260510025357 | 45 | 271 | 1.0 | 2.0 | 0.00 | 0.00 | 0.00 | 35 | 1014.4 |
| 20260510024843 | 46 | 271 | 1.0 | 2.0 | 0.00 | 0.00 | 0.00 | 33 | 1014.3 |
| 20260510024345 | 46 | 271 | 1.0 | 3.0 | 0.00 | 0.00 | 0.00 | 32 | 1014.2 |
| 20260510023818 | 46 | 271 | 1.0 | 3.0 | 0.00 | 0.00 | 0.00 | 32 | 1014.3 |
| 20260510023314 | 47 | 282 | 0.0 | 3.0 | 0.00 | 0.00 | 0.00 | 31 | 1014.2 |
| 20260510022804 | 47 | 282 | 1.0 | 4.0 | 0.00 | 0.00 | 0.00 | 30 | 1014.0 |
| 20260510022238 | 47 | 244 | 2.0 | 8.0 | 0.00 | 0.00 | 0.00 | 30 | 1013.9 |
| 20260510021731 | 47 | 288 | 2.0 | 8.0 | 0.00 | 0.00 | 0.00 | 30 | 1013.9 |
| 20260510021229 | 48 | 9 | 1.0 | 5.0 | 0.00 | 0.00 | 0.00 | 29 | 1013.9 |
| 20260510020703 | 48 | 315 | 2.0 | 5.0 | 0.00 | 0.00 | 0.00 | 29 | 1013.8 |
| 20260510020408 | 48 | 249 | 2.0 | 7.0 | 0.00 | 0.00 | 0.00 | 28 | 1013.8 |
| 20260510015609 | 48 | 42 | 3.0 | 10.0 | 0.00 | 0.00 | 0.00 | 29 | 1013.7 |
| 20260510015338 | 48 | 165 | 3.0 | 10.0 | 0.00 | 0.00 | 0.00 | 28 | 1013.6 |
| 20260510014540 | 49 | 44 | 3.0 | 11.0 | 0.00 | 0.00 | 0.00 | 27 | 1013.5 |
| 20260510014037 | 49 | 312 | 3.0 | 11.0 | 0.00 | 0.00 | 0.00 | 27 | 1013.5 |
| 20260510013510 | 49 | 254 | 2.0 | 8.0 | 0.00 | 0.00 | 0.00 | 27 | 1013.3 |
| 20260510013007 | 49 | 247 | 2.0 | 8.0 | 0.00 | 0.00 | 0.00 | 27 | 1013.2 |
| 20260510012504 | 49 | 294 | 3.0 | 9.0 | 0.00 | 0.00 | 0.00 | 27 | 1013.1 |
| 20260510012001 | 49 | 284 | 3.0 | 9.0 | 0.00 | 0.00 | 0.00 | 26 | 1013.0 |
| 20260510011435 | 50 | 237 | 3.0 | 6.0 | 0.00 | 0.00 | 0.00 | 26 | 1013.0 |
| 20260510010931 | 50 | 38 | 2.0 | 8.0 | 0.00 | 0.00 | 0.00 | 26 | 1012.9 |
| 20260510010405 | 50 | 355 | 2.0 | 6.0 | 0.00 | 0.00 | 0.00 | 26 | 1012.8 |
| 20260510005839 | 50 | 336 | 4.0 | 10.0 | 0.00 | 0.00 | 0.00 | 25 | 1012.8 |
| 20260510005335 | 50 | 290 | 4.0 | 11.0 | 0.00 | 0.00 | 0.00 | 25 | 1012.6 |
| 20260510004833 | 50 | 300 | 4.0 | 11.0 | 0.00 | 0.00 | 0.00 | 25 | 1012.6 |
| 20260510004305 | 50 | 298 | 4.0 | 11.0 | 0.00 | 0.00 | 0.00 | 25 | 1012.6 |
| 20260510003803 | 50 | 108 | 4.0 | 12.0 | 0.00 | 0.00 | 0.00 | 25 | 1012.5 |
| 20260510003235 | 51 | 55 | 5.0 | 12.0 | 0.00 | 0.00 | 0.00 | 25 | 1012.5 |
| 20260510002733 | 51 | 13 | 5.0 | 11.0 | 0.00 | 0.00 | 0.00 | 24 | 1012.5 |
| 20260510002205 | 51 | 288 | 4.0 | 11.0 | 0.00 | 0.00 | 0.00 | 24 | 1012.4 |
| 20260510001704 | 51 | 302 | 4.0 | 13.0 | 0.00 | 0.00 | 0.00 | 24 | 1012.3 |
| 20260510001135 | 52 | 63 | 5.0 | 13.0 | 0.00 | 0.00 | 0.00 | 24 | 1012.2 |
| 20260510000905 | 52 | 56 | 6.0 | 13.0 | 0.00 | 0.00 | 0.00 | 24 | 1012.1 |
| 20260510000338 | 52 | 355 | 7.0 | 16.0 | 0.00 | 0.00 | 0.00 | 24 | 1012.1 |
| 20260509235603 | 52 | 26 | 7.0 | 16.0 | 0.00 | 0.00 | 0.00 | 23 | 1012.0 |
| 20260509235037 | 53 | 36 | 8.0 | 19.0 | 0.00 | 0.00 | 0.00 | 23 | 1011.9 |
| 20260509234742 | 52 | 22 | 7.0 | 19.0 | 0.00 | 0.00 | 0.00 | 23 | 1011.8 |